sat.trackr.live / text

‹ back to catalog

CENTISPACE-1 S11

NORAD 62580 · 2025-007F

PAYLOAD ACTIVE UNKNOWN

§ Identity

Operator
Country
PRC
Launch date
2025-01-13
Launch site
YSLA
Launch vehicle
Mass (kg)
RCS (m²)

External: N2YO · Heavens-Above · Gunter

§ Orbital elements

Epoch: 2026-05-25T02:49:15.951936Z

Period
104.30 min
Inclination
54.9790°
Eccentricity
0.0012687
Mean motion
13.80605751 rev/d
Perigee alt
952.4 km
Apogee alt
971.1 km
Semi-major
7,339.9 km
B*
1.5315e-5
RAAN
11.7890°
Arg perigee
56.8528°
Mean anomaly
303.3643°
Rev number
7,154

§ Raw data

CENTISPACE-1 S111 62580U 25007F   26145.11754574 -.00000124  00000+0  15315-4 0  99932 62580  54.9790  11.7890 0012687  56.8528 303.3643 13.80605751 71546

JSON: /api/v1/satellites/62580 · /tle

For live sub-satellite position, see the globe view (requires WebGL).

§ Visibility from observer

Set your observer location to see the next 7 days of passes ≥ 10°. The values pass through the URL so the page stays shareable.

No JS? Fill the form by hand. The geolocation button needs JavaScript.

§ Radio — SatNOGS DB

ModeDescriptionDownlinkUplink
FM S-band telemetry 2.227 GHz

1 transmitter · refreshed weekly from db.satnogs.org